User: anonymous   Login
Location: Audinghen
(50.8518°N, 1.6129°E)
Time: 11:20:35
(UTC+00:00)
Language:

Cosmos 1766 - Orbit

View from above orbital plane
View from above orbital plane
View from above satellite
View from above satellite

Ground track
Ground track

The orbit data is extracted from the following two-line orbital elements,

1 16881U 86055A   20296.90778487 +.00000310 +00000-0 +16626-4 0  9996
2 16881 082.5056 265.5715 0015800 205.4291 154.6163 15.11125970845027
Epoch (UTC): 22 October 2020 21:47:12
Eccentricity: 0.0015800
inclination: 82.5056°
perigee height: 522 km
apogee height: 543 km
right ascension of ascending node: 265.5715°
argument of perigee: 205.4291°
revolutions per day: 15.11125970
mean anomaly at epoch: 154.6163°
orbit number at epoch: 84502

The dashed part of the orbit path shows where the satellite is in the earth's shadow,  

DLR